DELTA 1 DEB, 7039

Orbit data source: Space-Track

DELTA 1 DEB, 7039 is space debris in SSO originally from a launch on Tue, 06 Nov 1973 UTC launched from the Air Force Western Test Range (AFWTR). Debris objects in space refer to the collection of defunct objects orbiting the Earth. Examples of debris include non-operational satellites, rocket bodies, and fragments generated from explosions, collisions, or faulty payload assembly.

Loading next visibility...
Identifier
7039, 1973-086AF
Orbit
SSO
Country
Flag of USUS
Related business
Manufacturer
Unknown
Mission
Spacecraft
Bus & Motor
Unknown
Mass
Unknown
Launch date (UTC)
1973-11-06 (53 years ago)
Launch vehicle
Unknown
Launch site
Air Force Western Test Range (AFWTR)
Object type
Payload
Rocket body
Debris
Shape & HBR
Unknown shape, 0.1 m
Radar Cross Section
Medium (>0.1 m² and <1 m²)

Expand to show TLE details & history
Last TLE update: 9 hours ago

TLE from 9 hours ago
0 DELTA 1 DEB
1 07039U 73086AF  26227.52524632 -.00000016  00000-0  21421-3 0  9992
2 07039 102.5491 232.3016 0129313 185.5759 303.5389 12.49617429404520
Epoch: 2026-08-15T12:36Z
TLE epoch observation values (Epoch: 2026-08-15T12:36:21.282Z)
Latitude
50.49952°
Longitude
-85.13571°
Altitude
1,418.779 km
Speed
7.181 km/s
True Right ascension
04h 31m 33s
True Declination
50° 20' 42"
Sunlit
Object was in daylight at epoch
Visualization orbit readout
Latitude
Unknown
Longitude
Unknown
Altitude
Unknown
Speed
Unknown
Apparent Right ascension
Unknown
Apparent Declination
Unknown
Sunlit
N/A
Visualization observer readout
Local Sidereal Time
12:07:23
Azimuth
Unknown
Elevation
Unknown
Doppler factor
Unknown
Orbital elements
Apogee altitude
1,565.096 km
Perigee altitude
1,362.286 km
Semi-major axis
7,841.828 km
Eccentricity
0.01293
Inclination
102.5491°
RAAN
232.3016°
Arg. of periapsis
185.5759°
True anomaly
302.29276°
Mean anomaly
303.5389°
Eccentric anomaly
302.91694°
Mean motion
3.12548 °/min
Orbital period
115.18 mins
BSTAR
0.00021421
Loading maneuver chart data...
Computing Atmospheric mass density...
Loading historical data...
Loading historical data...
Loading historical data...
Loading historical data...
Loading historical data...
Loading historical data...
Loading historical data...

Documentation

Showing up to 5 results
|